| time (UTC) | temp F | wind direction | speed knots | gust knots | rain 1hr in | rain 24hr in | rain mn in | humidity % | barometer mb |
| 20260906181403 | 84 | 212 | 4.3 | 7.0 | 0.00 | 0.00 | 0.00 | 77 | 1016.3 |
| 20260906180858 | 84 | 167 | 7.0 | 7.8 | 0.00 | 0.00 | 0.00 | 76 | 1016.2 |
| 20260906180353 | 84 | 132 | 3.5 | 6.1 | 0.00 | 0.00 | 0.00 | 77 | 1016.2 |
| 20260906175850 | 83 | 148 | 3.5 | 8.7 | 0.00 | 0.00 | 0.00 | 79 | 1016.2 |
| 20260906175346 | 83 | 144 | 7.8 | 8.7 | 0.00 | 0.00 | 0.00 | 78 | 1016.0 |
| 20260906174845 | 83 | 113 | 4.3 | 8.7 | 0.00 | 0.00 | 0.00 | 78 | 1016.1 |
| 20260906174344 | 83 | 132 | 5.2 | 6.1 | 0.00 | 0.00 | 0.00 | 80 | 1016.2 |
| 20260906173839 | 82 | 123 | 4.3 | 6.1 | 0.00 | 0.00 | 0.00 | 81 | 1016.2 |
| 20260906173335 | 82 | 135 | 2.6 | 5.2 | 0.00 | 0.00 | 0.00 | 84 | 1016.5 |
| 20260906172834 | 82 | 109 | 0.9 | 2.6 | 0.00 | 0.00 | 0.00 | 85 | 1016.5 |
| 20260906172330 | 82 | 138 | 2.6 | 3.5 | 0.00 | 0.00 | 0.00 | 85 | 1016.8 |
| 20260906171825 | 82 | 134 | 3.5 | 2.6 | 0.00 | 0.00 | 0.00 | 84 | 1016.7 |
| 20260906171320 | 81 | 191 | 0.9 | 2.6 | 0.00 | 0.00 | 0.00 | 85 | 1016.9 |
| 20260906170815 | 81 | 150 | 1.7 | 3.5 | 0.00 | 0.00 | 0.00 | 85 | 1017.1 |
| 20260906170311 | 81 | 198 | 2.6 | 3.5 | 0.00 | 0.00 | 0.00 | 85 | 1017.0 |
| 20260906165807 | 81 | 195 | 2.6 | 5.2 | 0.00 | 0.00 | 0.00 | 85 | 1017.1 |
| 20260906165306 | 81 | 195 | 3.5 | 3.5 | 0.00 | 0.00 | 0.00 | 85 | 1017.0 |
| 20260906164801 | 81 | 179 | 4.3 | 5.2 | 0.00 | 0.00 | 0.00 | 84 | 1016.7 |
| 20260906164256 | 81 | 188 | 3.5 | 5.2 | 0.00 | 0.00 | 0.00 | 84 | 1016.8 |
| 20260906163752 | 81 | 196 | 2.6 | 5.2 | 0.00 | 0.00 | 0.00 | 84 | 1017.2 |
| 20260906163248 | 81 | 192 | 1.7 | 1.7 | 0.00 | 0.00 | 0.00 | 84 | 1017.3 |
| 20260906162745 | 81 | 178 | 2.6 | 3.5 | 0.00 | 0.00 | 0.00 | 85 | 1017.4 |
| 20260906162239 | 81 | 159 | 1.7 | 3.5 | 0.00 | 0.00 | 0.00 | 85 | 1017.2 |
| 20260906161739 | 80 | 177 | 2.6 | 3.5 | 0.00 | 0.00 | 0.00 | 85 | 1017.3 |
| 20260906161239 | 80 | 156 | 1.7 | 2.6 | 0.00 | 0.00 | 0.00 | 86 | 1017.2 |
| 20260906160738 | 80 | 176 | 0.9 | 2.6 | 0.00 | 0.00 | 0.00 | 85 | 1017.4 |
| 20260906160237 | 80 | 235 | 3.5 | 5.2 | 0.00 | 0.00 | 0.00 | 86 | 1017.5 |
| 20260906155735 | 80 | 213 | 3.5 | 7.0 | 0.00 | 0.00 | 0.00 | 86 | 1017.2 |
| 20260906155230 | 81 | 204 | 7.8 | 8.7 | 0.00 | 0.00 | 0.00 | 86 | 1017.7 |
| 20260906154726 | 81 | 188 | 5.2 | 7.0 | 0.00 | 0.00 | 0.00 | 85 | 1017.2 |
| 20260906154221 | 80 | 173 | 2.6 | 3.5 | 0.00 | 0.00 | 0.00 | 87 | 1017.0 |
| 20260906153719 | 80 | 164 | 5.2 | 6.1 | 0.00 | 0.00 | 0.00 | 86 | 1016.9 |
| 20260906153214 | 80 | 143 | 3.5 | 3.5 | 0.00 | 0.00 | 0.00 | 87 | 1016.8 |
| 20260906152709 | 80 | 159 | 2.6 | 5.2 | 0.00 | 0.00 | 0.00 | 87 | 1017.1 |
| 20260906152209 | 80 | 157 | 4.3 | 5.2 | 0.00 | 0.00 | 0.00 | 86 | 1017.2 |
| 20260906151703 | 80 | 143 | 3.5 | 5.2 | 0.00 | 0.00 | 0.00 | 87 | 1016.9 |
| 20260906151159 | 80 | 142 | 6.1 | 7.8 | 0.00 | 0.00 | 0.00 | 86 | 1016.6 |
| 20260906150654 | 80 | 163 | 5.2 | 6.1 | 0.00 | 0.00 | 0.00 | 86 | 1016.7 |
| 20260906150149 | 80 | 117 | 3.5 | 7.0 | 0.00 | 0.00 | 0.00 | 87 | 1016.6 |
| 20260906145649 | 80 | 135 | 6.1 | 7.0 | 0.00 | 0.00 | 0.00 | 86 | 1016.9 |
| 20260906145149 | 80 | 138 | 3.5 | 5.2 | 0.00 | 0.00 | 0.00 | 87 | 1016.8 |
| 20260906144648 | 80 | 122 | 3.5 | 5.2 | 0.00 | 0.00 | 0.00 | 86 | 1016.9 |
| 20260906144143 | 80 | 108 | 1.7 | 3.5 | 0.00 | 0.00 | 0.00 | 87 | 1016.9 |
| 20260906143643 | 80 | 127 | 3.5 | 5.2 | 0.00 | 0.00 | 0.00 | 87 | 1017.0 |
| 20260906143140 | 79 | 160 | 5.2 | 8.7 | 0.00 | 0.00 | 0.00 | 88 | 1016.8 |
| 20260906142639 | 79 | 176 | 4.3 | 7.0 | 0.00 | 0.00 | 0.00 | 88 | 1016.9 |
| 20260906142135 | 79 | 95 | 0.9 | 2.6 | 0.00 | 0.00 | 0.00 | 88 | 1016.9 |
| 20260906141633 | 79 | 129 | 7.0 | 7.0 | 0.00 | 0.00 | 0.00 | 88 | 1017.0 |
| 20260906141129 | 79 | 126 | 3.5 | 7.0 | 0.00 | 0.00 | 0.00 | 89 | 1017.0 |
| 20260906140628 | 79 | 134 | 3.5 | 7.0 | 0.00 | 0.00 | 0.00 | 89 | 1017.2 |
| 20260906140123 | 79 | 138 | 5.2 | 5.2 | 0.00 | 0.00 | 0.00 | 88 | 1017.1 |
| 20260906135620 | 79 | 125 | 2.6 | 3.5 | 0.00 | 0.00 | 0.00 | 89 | 1017.1 |
| 20260906135116 | 79 | 105 | 0.9 | 3.5 | 0.00 | 0.00 | 0.00 | 89 | 1017.2 |
| 20260906134612 | 79 | 132 | 4.3 | 3.5 | 0.00 | 0.00 | 0.00 | 90 | 1017.3 |
| 20260906134107 | 78 | 95 | 1.7 | 1.7 | 0.00 | 0.00 | 0.00 | 90 | 1017.2 |
| 20260906133602 | 78 | 137 | 3.5 | 7.0 | 0.00 | 0.00 | 0.00 | 90 | 1017.3 |
| 20260906133057 | 78 | 152 | 3.5 | 3.5 | 0.00 | 0.00 | 0.00 | 91 | 1017.3 |
| 20260906132552 | 77 | 117 | 0.9 | 5.2 | 0.00 | 0.00 | 0.00 | 92 | 1017.5 |
| 20260906132048 | 77 | 143 | 3.5 | 3.5 | 0.00 | 0.00 | 0.00 | 93 | 1017.4 |
| 20260906131543 | 77 | 129 | 1.7 | 2.6 | 0.00 | 0.00 | 0.00 | 93 | 1017.4 |
| 20260906131038 | 77 | 124 | 1.7 | 5.2 | 0.00 | 0.00 | 0.00 | 93 | 1017.0 |
| 20260906130538 | 77 | 142 | 0.9 | 0.9 | 0.00 | 0.00 | 0.00 | 94 | 1017.4 |
| 20260906130033 | 76 | 146 | 0.9 | 3.5 | 0.00 | 0.00 | 0.00 | 94 | 1017.0 |
| 20260906125531 | 76 | 127 | 0.0 | 0.9 | 0.00 | 0.00 | 0.00 | 95 | 1016.9 |
| 20260906125031 | 76 | 127 | 1.7 | 1.7 | 0.00 | 0.00 | 0.00 | 95 | 1017.0 |
| 20260906124526 | 75 | 128 | 1.7 | 1.7 | 0.00 | 0.00 | 0.00 | 95 | 1016.9 |
| 20260906124021 | 75 | 128 | 0.9 | 1.7 | 0.00 | 0.00 | 0.00 | 96 | 1017.0 |
| 20260906123520 | 75 | 130 | 0.9 | 2.6 | 0.00 | 0.00 | 0.00 | 96 | 1016.7 |
| 20260906123016 | 75 | 132 | 0.9 | 2.6 | 0.00 | 0.00 | 0.00 | 96 | 1016.8 |
| 20260906122515 | 75 | 124 | 1.7 | 1.7 | 0.00 | 0.00 | 0.00 | 96 | 1016.7 |
| 20260906122011 | 75 | 124 | 0.0 | 0.9 | 0.00 | 0.00 | 0.00 | 96 | 1016.9 |
| 20260906121507 | 75 | 124 | 0.9 | 1.7 | 0.00 | 0.00 | 0.00 | 96 | 1016.8 |
| 20260906121003 | 75 | 124 | 0.0 | 0.0 | 0.00 | 0.00 | 0.00 | 96 | 1016.7 |
| 20260906120458 | 75 | 124 | 0.0 | 0.0 | 0.00 | 0.00 | 0.00 | 96 | 1016.6 |
| 20260906115954 | 75 | 124 | 0.0 | 0.0 | 0.00 | 0.00 | 0.00 | 96 | 1016.4 |
| 20260906115450 | 75 | 124 | 0.0 | 0.0 | 0.00 | 0.00 | 0.00 | 96 | 1016.3 |
| 20260906114950 | 75 | 124 | 0.0 | 0.0 | 0.00 | 0.00 | 0.00 | 96 | 1016.3 |
| 20260906114444 | 75 | 124 | 0.0 | 0.0 | 0.00 | 0.00 | 0.00 | 96 | 1016.2 |
| 20260906113941 | 75 | 124 | 0.9 | 1.7 | 0.00 | 0.00 | 0.00 | 96 | 1016.2 |
| 20260906113439 | 75 | 126 | 0.0 | 0.0 | 0.00 | 0.00 | 0.00 | 96 | 1016.4 |
| 20260906112935 | 75 | 127 | 0.0 | 1.7 | 0.00 | 0.00 | 0.00 | 96 | 1016.3 |
| 20260906112430 | 75 | 78 | 1.7 | 1.7 | 0.00 | 0.00 | 0.00 | 96 | 1016.2 |
| 20260906111926 | 74 | 77 | 0.9 | 0.9 | 0.00 | 0.00 | 0.00 | 96 | 1016.5 |
| 20260906111425 | 74 | 77 | 0.0 | 0.9 | 0.00 | 0.00 | 0.00 | 96 | 1016.3 |
| 20260906110920 | 75 | 77 | 0.0 | 0.0 | 0.00 | 0.00 | 0.00 | 96 | 1016.1 |
| 20260906110415 | 75 | 77 | 0.0 | 0.0 | 0.00 | 0.00 | 0.00 | 96 | 1016.1 |
| 20260906105915 | 74 | 77 | 0.0 | 0.9 | 0.00 | 0.00 | 0.00 | 96 | 1016.0 |
| 20260906105410 | 74 | 77 | 0.9 | 0.9 | 0.00 | 0.00 | 0.00 | 96 | 1016.2 |
| 20260906104906 | 74 | 77 | 0.0 | 0.0 | 0.00 | 0.00 | 0.00 | 96 | 1016.2 |
| 20260906104404 | 75 | 77 | 0.0 | 0.0 | 0.00 | 0.00 | 0.00 | 96 | 1016.1 |
| 20260906103903 | 75 | 77 | 0.0 | 0.0 | 0.00 | 0.00 | 0.00 | 96 | 1016.3 |
| 20260906103402 | 75 | 77 | 0.0 | 0.0 | 0.00 | 0.00 | 0.00 | 96 | 1016.2 |
| 20260906102858 | 75 | 77 | 0.0 | 0.0 | 0.00 | 0.00 | 0.00 | 96 | 1016.2 |
| 20260906102357 | 75 | 77 | 0.9 | 0.9 | 0.00 | 0.00 | 0.00 | 96 | 1016.2 |
| 20260906101852 | 75 | 77 | 0.0 | 0.9 | 0.00 | 0.00 | 0.00 | 96 | 1015.9 |
| 20260906101347 | 75 | 77 | 0.0 | 0.0 | 0.00 | 0.00 | 0.00 | 96 | 1015.8 |
| 20260906100843 | 75 | 77 | 0.0 | 0.0 | 0.00 | 0.00 | 0.00 | 96 | 1015.9 |
| 20260906100341 | 75 | 77 | 0.0 | 0.0 | 0.00 | 0.00 | 0.00 | 95 | 1015.6 |
| 20260906095837 | 75 | 77 | 0.0 | 0.0 | 0.00 | 0.00 | 0.00 | 95 | 1015.6 |
| 20260906095332 | 75 | 77 | 0.0 | 0.0 | 0.00 | 0.00 | 0.00 | 95 | 1015.7 |
| 20260906094832 | 75 | 77 | 0.0 | 0.9 | 0.00 | 0.00 | 0.00 | 95 | 1015.8 |
| 20260906094326 | 75 | 78 | 0.0 | 0.0 | 0.00 | 0.00 | 0.00 | 95 | 1015.7 |
| 20260906093823 | 75 | 78 | 0.0 | 0.0 | 0.00 | 0.00 | 0.00 | 95 | 1015.9 |
| 20260906093319 | 75 | 78 | 0.0 | 0.0 | 0.00 | 0.00 | 0.00 | 95 | 1015.8 |
| 20260906092814 | 75 | 78 | 0.0 | 0.0 | 0.00 | 0.00 | 0.00 | 95 | 1016.1 |
| 20260906092313 | 75 | 78 | 0.0 | 0.0 | 0.00 | 0.00 | 0.00 | 95 | 1016.0 |
| 20260906091809 | 75 | 78 | 0.0 | 0.0 | 0.00 | 0.00 | 0.00 | 95 | 1015.9 |
| 20260906091305 | 76 | 78 | 0.0 | 0.0 | 0.00 | 0.00 | 0.00 | 95 | 1015.9 |
| 20260906090802 | 76 | 78 | 0.0 | 0.0 | 0.00 | 0.00 | 0.00 | 95 | 1016.1 |
| 20260906090300 | 76 | 78 | 0.0 | 0.0 | 0.00 | 0.00 | 0.00 | 95 | 1015.9 |
| 20260906085801 | 75 | 78 | 0.0 | 0.0 | 0.00 | 0.00 | 0.00 | 94 | 1015.9 |
| 20260906085259 | 76 | 78 | 0.0 | 0.0 | 0.00 | 0.00 | 0.00 | 94 | 1015.9 |
| 20260906084755 | 76 | 78 | 0.0 | 0.0 | 0.00 | 0.00 | 0.00 | 94 | 1016.0 |
| 20260906084254 | 76 | 78 | 0.0 | 0.0 | 0.00 | 0.00 | 0.00 | 94 | 1015.9 |
| 20260906083749 | 76 | 78 | 0.0 | 0.0 | 0.00 | 0.00 | 0.00 | 93 | 1015.8 |
| 20260906083245 | 76 | 78 | 0.0 | 0.0 | 0.00 | 0.00 | 0.00 | 93 | 1015.8 |
| 20260906082739 | 77 | 78 | 0.0 | 0.0 | 0.00 | 0.00 | 0.00 | 92 | 1015.7 |
| 20260906082234 | 77 | 78 | 0.0 | 0.0 | 0.00 | 0.00 | 0.00 | 92 | 1016.0 |
| 20260906081730 | 77 | 78 | 0.9 | 0.9 | 0.00 | 0.00 | 0.00 | 93 | 1015.7 |
| 20260906081225 | 77 | 78 | 1.7 | 1.7 | 0.00 | 0.00 | 0.00 | 93 | 1015.7 |
| 20260906080722 | 76 | 79 | 0.9 | 0.9 | 0.00 | 0.00 | 0.00 | 93 | 1015.5 |
| 20260906080218 | 77 | 79 | 0.0 | 0.0 | 0.00 | 0.00 | 0.00 | 93 | 1015.5 |
| 20260906075718 | 77 | 79 | 0.0 | 0.9 | 0.00 | 0.00 | 0.00 | 93 | 1015.3 |
| 20260906075217 | 77 | 79 | 0.9 | 0.9 | 0.00 | 0.00 | 0.00 | 93 | 1015.2 |
| 20260906074713 | 77 | 79 | 0.0 | 0.9 | 0.00 | 0.00 | 0.00 | 93 | 1015.2 |
| 20260906074212 | 76 | 78 | 0.9 | 0.9 | 0.00 | 0.00 | 0.00 | 94 | 1015.6 |
| 20260906073707 | 76 | 79 | 0.0 | 0.0 | 0.00 | 0.00 | 0.00 | 93 | 1015.5 |
| 20260906073202 | 76 | 79 | 0.0 | 0.0 | 0.00 | 0.00 | 0.00 | 93 | 1015.5 |
| 20260906072658 | 77 | 79 | 0.0 | 0.0 | 0.00 | 0.00 | 0.00 | 93 | 1015.5 |
| 20260906072153 | 77 | 79 | 0.0 | 0.0 | 0.00 | 0.00 | 0.00 | 93 | 1015.6 |
| 20260906071649 | 77 | 79 | 0.0 | 0.9 | 0.00 | 0.00 | 0.00 | 93 | 1015.9 |
| 20260906071149 | 77 | 79 | 0.0 | 0.9 | 0.00 | 0.00 | 0.00 | 93 | 1015.7 |
| 20260906070646 | 77 | 79 | 0.0 | 0.0 | 0.00 | 0.00 | 0.00 | 92 | 1015.8 |
| 20260906070141 | 77 | 79 | 0.0 | 0.0 | 0.00 | 0.00 | 0.00 | 92 | 1015.9 |
| 20260906065641 | 77 | 79 | 0.0 | 0.0 | 0.00 | 0.00 | 0.00 | 92 | 1015.8 |
| 20260906065136 | 77 | 79 | 0.0 | 0.9 | 0.00 | 0.00 | 0.00 | 92 | 1015.7 |
| 20260906064632 | 77 | 79 | 0.0 | 1.7 | 0.00 | 0.00 | 0.00 | 92 | 1015.9 |
| 20260906064127 | 77 | 80 | 0.0 | 1.7 | 0.00 | 0.00 | 0.00 | 92 | 1015.8 |
| 20260906063622 | 77 | 117 | 0.0 | 0.0 | 0.00 | 0.00 | 0.00 | 92 | 1015.8 |
| 20260906063118 | 77 | 117 | 0.0 | 0.0 | 0.00 | 0.00 | 0.00 | 92 | 1015.7 |
| 20260906062613 | 77 | 117 | 0.0 | 0.9 | 0.00 | 0.00 | 0.00 | 92 | 1015.8 |
| 20260906062112 | 77 | 128 | 0.0 | 0.9 | 0.00 | 0.00 | 0.00 | 91 | 1015.7 |
| 20260906061608 | 77 | 128 | 0.0 | 0.9 | 0.00 | 0.00 | 0.00 | 91 | 1015.8 |
| 20260906061108 | 78 | 128 | 0.0 | 0.0 | 0.00 | 0.00 | 0.00 | 90 | 1015.9 |
| 20260906060605 | 78 | 128 | 0.0 | 0.0 | 0.00 | 0.00 | 0.00 | 90 | 1015.8 |
| 20260906055557 | 78 | 128 | 0.9 | 2.6 | 0.00 | 0.00 | 0.00 | 90 | 1015.7 |
| 20260906055052 | 78 | 127 | 0.9 | 0.9 | 0.00 | 0.00 | 0.00 | 89 | 1015.7 |
| 20260906054552 | 78 | 125 | 0.0 | 0.0 | 0.00 | 0.00 | 0.00 | 89 | 1016.0 |
| 20260906054048 | 79 | 125 | 0.0 | 0.0 | 0.00 | 0.00 | 0.00 | 88 | 1015.9 |
| 20260906053544 | 79 | 125 | 0.0 | 0.0 | 0.00 | 0.00 | 0.00 | 87 | 1015.9 |
| 20260906053039 | 80 | 125 | 0.9 | 1.7 | 0.00 | 0.00 | 0.00 | 86 | 1015.8 |
| 20260906052535 | 80 | 124 | 0.9 | 0.9 | 0.00 | 0.00 | 0.00 | 86 | 1015.8 |
| 20260906052032 | 80 | 138 | 4.3 | 5.2 | 0.00 | 0.00 | 0.00 | 86 | 1015.8 |
| 20260906051527 | 80 | 83 | 0.9 | 1.7 | 0.00 | 0.00 | 0.00 | 86 | 1015.8 |
| 20260906051022 | 80 | 5 | 0.9 | 0.9 | 0.00 | 0.00 | 0.00 | 86 | 1015.8 |
| 20260906050517 | 80 | 350 | 0.9 | 0.9 | 0.00 | 0.00 | 0.00 | 86 | 1015.9 |
| 20260906050012 | 80 | 98 | 0.0 | 0.9 | 0.00 | 0.00 | 0.00 | 86 | 1015.6 |
| 20260906045510 | 80 | 98 | 0.9 | 0.9 | 0.00 | 0.00 | 0.00 | 86 | 1015.5 |
| 20260906045006 | 80 | 98 | 0.0 | 0.9 | 0.00 | 0.00 | 0.00 | 86 | 1015.6 |
| 20260906044501 | 80 | 131 | 0.0 | 2.6 | 0.00 | 0.00 | 0.00 | 86 | 1015.6 |
| 20260906043957 | 80 | 113 | 2.6 | 6.1 | 0.00 | 0.00 | 0.00 | 86 | 1015.5 |
| 20260906043453 | 80 | 125 | 1.7 | 3.5 | 0.00 | 0.00 | 0.00 | 86 | 1016.0 |
| 20260906042948 | 80 | 124 | 0.9 | 1.7 | 0.00 | 0.00 | 0.00 | 87 | 1015.9 |
| 20260906042448 | 80 | 62 | 0.9 | 1.7 | 0.00 | 0.00 | 0.00 | 87 | 1016.1 |
| 20260906041947 | 80 | 112 | 0.0 | 1.7 | 0.00 | 0.00 | 0.00 | 87 | 1016.0 |
| 20260906041444 | 80 | 132 | 0.9 | 1.7 | 0.00 | 0.00 | 0.00 | 87 | 1016.2 |
| 20260906040943 | 79 | 118 | 0.9 | 2.6 | 0.00 | 0.00 | 0.00 | 88 | 1016.1 |
| 20260906040438 | 79 | 4 | 0.0 | 0.9 | 0.00 | 0.00 | 0.00 | 89 | 1016.1 |
| 20260906035934 | 79 | 4 | 0.0 | 0.0 | 0.00 | 0.00 | 0.00 | 88 | 1016.3 |
| 20260906035429 | 79 | 4 | 0.0 | 0.0 | 0.00 | 0.00 | 0.00 | 88 | 1016.1 |
| 20260906034925 | 79 | 4 | 0.0 | 0.0 | 0.00 | 0.00 | 0.00 | 88 | 1016.1 |
| 20260906034425 | 79 | 4 | 0.0 | 0.9 | 0.00 | 0.00 | 0.00 | 88 | 1016.2 |
| 20260906033920 | 79 | 4 | 0.0 | 0.0 | 0.00 | 0.00 | 0.00 | 88 | 1015.8 |
| 20260906033420 | 79 | 4 | 0.0 | 0.9 | 0.00 | 0.00 | 0.00 | 88 | 1015.9 |
| 20260906032916 | 79 | 4 | 0.9 | 0.9 | 0.00 | 0.00 | 0.00 | 88 | 1016.0 |
| 20260906032413 | 79 | 4 | 0.0 | 0.0 | 0.00 | 0.00 | 0.00 | 87 | 1016.0 |
| 20260906031912 | 79 | 4 | 0.9 | 0.9 | 0.00 | 0.00 | 0.00 | 87 | 1015.9 |
| 20260906031409 | 80 | 4 | 0.0 | 0.9 | 0.00 | 0.00 | 0.00 | 86 | 1015.9 |
| 20260906030908 | 80 | 4 | 0.9 | 0.9 | 0.00 | 0.00 | 0.00 | 86 | 1015.8 |
| 20260906030404 | 80 | 4 | 0.0 | 0.9 | 0.00 | 0.00 | 0.00 | 86 | 1015.7 |
| 20260906025858 | 80 | 4 | 0.0 | 0.9 | 0.00 | 0.00 | 0.00 | 85 | 1015.6 |
| 20260906025352 | 80 | 4 | 0.9 | 1.7 | 0.00 | 0.00 | 0.00 | 85 | 1015.6 |
| 20260906024852 | 80 | 358 | 0.9 | 1.7 | 0.00 | 0.00 | 0.00 | 85 | 1015.3 |
| 20260906024351 | 80 | 358 | 0.9 | 0.9 | 0.00 | 0.00 | 0.00 | 84 | 1015.1 |
| 20260906023846 | 80 | 358 | 0.0 | 0.0 | 0.00 | 0.00 | 0.00 | 84 | 1015.3 |
| 20260906023342 | 80 | 358 | 0.0 | 0.9 | 0.00 | 0.00 | 0.00 | 84 | 1015.2 |
| 20260906022837 | 80 | 358 | 0.9 | 0.9 | 0.00 | 0.00 | 0.00 | 83 | 1015.1 |
| 20260906022337 | 80 | 358 | 0.9 | 0.9 | 0.00 | 0.00 | 0.00 | 83 | 1015.1 |
| 20260906021833 | 80 | 358 | 0.9 | 0.9 | 0.00 | 0.00 | 0.00 | 83 | 1015.2 |
| 20260906021332 | 81 | 358 | 0.0 | 0.9 | 0.00 | 0.00 | 0.00 | 83 | 1015.3 |
| 20260906020827 | 81 | 357 | 0.9 | 1.7 | 0.00 | 0.00 | 0.00 | 82 | 1015.1 |
| 20260906020327 | 81 | 13 | 1.7 | 2.6 | 0.00 | 0.00 | 0.00 | 82 | 1014.9 |
| 20260906015822 | 81 | 20 | 0.0 | 0.0 | 0.00 | 0.00 | 0.00 | 82 | 1014.9 |
| 20260906015321 | 81 | 20 | 0.0 | 0.9 | 0.00 | 0.00 | 0.00 | 82 | 1014.7 |
| 20260906014820 | 81 | 20 | 0.0 | 0.9 | 0.00 | 0.00 | 0.00 | 81 | 1014.7 |
| 20260906014316 | 81 | 20 | 0.9 | 0.9 | 0.00 | 0.00 | 0.00 | 81 | 1014.7 |
| 20260906013812 | 82 | 20 | 0.9 | 0.9 | 0.00 | 0.00 | 0.00 | 81 | 1014.6 |
| 20260906013307 | 82 | 20 | 0.0 | 0.9 | 0.00 | 0.00 | 0.00 | 80 | 1014.6 |
| 20260906012802 | 81 | 21 | 0.0 | 0.9 | 0.00 | 0.00 | 0.00 | 80 | 1014.6 |
| 20260906012257 | 82 | 20 | 0.0 | 0.0 | 0.00 | 0.00 | 0.00 | 80 | 1014.4 |
| 20260906011752 | 82 | 20 | 0.0 | 0.0 | 0.00 | 0.00 | 0.00 | 79 | 1014.4 |
| 20260906011252 | 82 | 20 | 0.0 | 0.0 | 0.00 | 0.00 | 0.00 | 79 | 1014.5 |
| 20260906010747 | 82 | 20 | 0.0 | 0.9 | 0.00 | 0.00 | 0.00 | 78 | 1014.4 |
| 20260906010244 | 82 | 20 | 0.9 | 0.9 | 0.00 | 0.00 | 0.00 | 78 | 1014.4 |
| 20260906005738 | 83 | 20 | 0.0 | 0.0 | 0.00 | 0.00 | 0.00 | 78 | 1014.2 |
| 20260906005237 | 83 | 20 | 0.0 | 1.7 | 0.00 | 0.00 | 0.00 | 77 | 1014.1 |
| 20260906004737 | 83 | 21 | 0.9 | 1.7 | 0.00 | 0.00 | 0.00 | 77 | 1014.1 |
| 20260906004232 | 83 | 24 | 0.9 | 0.9 | 0.00 | 0.00 | 0.00 | 78 | 1014.2 |
| 20260906003733 | 84 | 23 | 0.9 | 1.7 | 0.00 | 0.00 | 0.00 | 77 | 1014.3 |
| 20260906003229 | 84 | 30 | 0.9 | 0.9 | 0.00 | 0.00 | 0.00 | 76 | 1014.0 |
| 20260906002728 | 85 | 30 | 0.0 | 1.7 | 0.00 | 0.00 | 0.00 | 74 | 1014.0 |
| 20260906002223 | 86 | 83 | 0.0 | 0.9 | 0.00 | 0.00 | 0.00 | 73 | 1014.3 |
| 20260906001719 | 86 | 49 | 0.0 | 0.0 | 0.00 | 0.00 | 0.00 | 72 | 1014.0 |
| 20260906001219 | 87 | 135 | 0.0 | 1.7 | 0.00 | 0.00 | 0.00 | 71 | 1013.9 |
| 20260906000714 | 87 | 133 | 0.0 | 0.9 | 0.00 | 0.00 | 0.00 | 71 | 1014.0 |
| 20260906000211 | 87 | 133 | 1.7 | 1.7 | 0.00 | 0.00 | 0.00 | 70 | 1013.9 |
| 20260905235709 | 87 | 137 | 2.6 | 3.5 | 0.00 | 0.00 | 0.00 | 69 | 1013.9 |
| 20260905235203 | 87 | 127 | 1.7 | 3.5 | 0.00 | 0.00 | 0.00 | 69 | 1013.6 |
| 20260905234659 | 87 | 129 | 2.6 | 5.2 | 0.00 | 0.00 | 0.00 | 68 | 1014.0 |
| 20260905234154 | 87 | 106 | 0.9 | 7.8 | 0.00 | 0.00 | 0.00 | 69 | 1013.8 |
| 20260905233649 | 88 | 128 | 2.6 | 6.1 | 0.00 | 0.00 | 0.00 | 68 | 1013.8 |
| 20260905233149 | 88 | 129 | 3.5 | 8.7 | 0.00 | 0.00 | 0.00 | 67 | 1013.9 |
| 20260905232644 | 88 | 135 | 6.1 | 7.8 | 0.00 | 0.00 | 0.00 | 67 | 1013.8 |
| 20260905232140 | 88 | 133 | 0.9 | 3.5 | 0.00 | 0.00 | 0.00 | 69 | 1013.9 |
| 20260905231634 | 88 | 130 | 4.3 | 6.1 | 0.00 | 0.00 | 0.00 | 67 | 1013.7 |
| 20260905231131 | 89 | 144 | 4.3 | 5.2 | 0.00 | 0.00 | 0.00 | 66 | 1014.0 |
| 20260905230627 | 89 | 107 | 1.7 | 1.7 | 0.00 | 0.00 | 0.00 | 67 | 1013.8 |
| 20260905230125 | 88 | 134 | 1.7 | 1.7 | 0.00 | 0.00 | 0.00 | 67 | 1013.8 |
| 20260905225624 | 88 | 166 | 3.5 | 3.5 | 0.00 | 0.00 | 0.00 | 67 | 1013.9 |
| 20260905225120 | 88 | 157 | 4.3 | 7.0 | 0.00 | 0.00 | 0.00 | 66 | 1013.9 |
| 20260905224619 | 88 | 159 | 5.2 | 7.8 | 0.00 | 0.00 | 0.00 | 65 | 1013.8 |
| 20260905224118 | 88 | 135 | 2.6 | 6.1 | 0.00 | 0.00 | 0.00 | 66 | 1014.0 |
| 20260905223616 | 88 | 130 | 4.3 | 7.8 | 0.00 | 0.00 | 0.00 | 66 | 1013.6 |
| 20260905223112 | 88 | 145 | 6.1 | 7.8 | 0.00 | 0.00 | 0.00 | 67 | 1013.6 |
| 20260905222612 | 88 | 138 | 6.1 | 7.8 | 0.00 | 0.00 | 0.00 | 66 | 1013.7 |
| 20260905222107 | 87 | 105 | 4.3 | 7.0 | 0.00 | 0.00 | 0.00 | 68 | 1013.9 |
| 20260905221603 | 87 | 107 | 6.1 | 8.7 | 0.00 | 0.00 | 0.00 | 65 | 1013.6 |
| 20260905221059 | 87 | 132 | 5.2 | 9.6 | 0.00 | 0.00 | 0.00 | 66 | 1013.6 |
| 20260905220554 | 87 | 155 | 7.8 | 8.7 | 0.00 | 0.00 | 0.00 | 66 | 1013.5 |
| 20260905220050 | 87 | 152 | 8.7 | 12.2 | 0.00 | 0.00 | 0.00 | 65 | 1013.6 |
| 20260905215549 | 87 | 137 | 3.5 | 7.8 | 0.00 | 0.00 | 0.00 | 68 | 1013.5 |
| 20260905215046 | 87 | 120 | 1.7 | 7.8 | 0.00 | 0.00 | 0.00 | 67 | 1013.5 |
| 20260905214543 | 87 | 140 | 3.5 | 7.0 | 0.00 | 0.00 | 0.00 | 67 | 1013.4 |
| 20260905214043 | 87 | 137 | 7.8 | 9.6 | 0.00 | 0.00 | 0.00 | 66 | 1013.5 |
| 20260905213538 | 87 | 137 | 5.2 | 6.1 | 0.00 | 0.00 | 0.00 | 66 | 1013.6 |
| 20260905213033 | 86 | 144 | 6.1 | 8.7 | 0.00 | 0.00 | 0.00 | 67 | 1013.7 |
| 20260905212528 | 87 | 135 | 7.8 | 9.6 | 0.00 | 0.00 | 0.00 | 65 | 1013.7 |
| 20260905212027 | 86 | 132 | 5.2 | 8.7 | 0.00 | 0.00 | 0.00 | 66 | 1013.9 |
| 20260905211523 | 86 | 128 | 7.8 | 11.3 | 0.00 | 0.00 | 0.00 | 65 | 1013.7 |
| 20260905211019 | 86 | 140 | 7.8 | 12.2 | 0.00 | 0.00 | 0.00 | 64 | 1013.9 |
| 20260905210514 | 86 | 98 | 5.2 | 7.0 | 0.00 | 0.00 | 0.00 | 65 | 1013.9 |
| 20260905210014 | 86 | 131 | 11.3 | 13.0 | 0.00 | 0.00 | 0.00 | 63 | 1013.7 |
| 20260905205514 | 86 | 134 | 7.0 | 8.7 | 0.00 | 0.00 | 0.00 | 64 | 1013.7 |
| 20260905205013 | 86 | 143 | 7.0 | 9.6 | 0.00 | 0.00 | 0.00 | 63 | 1013.8 |
| 20260905204508 | 86 | 148 | 1.7 | 3.5 | 0.00 | 0.00 | 0.00 | 61 | 1013.9 |
| 20260905204008 | 85 | 128 | 7.8 | 11.3 | 0.00 | 0.00 | 0.00 | 63 | 1013.7 |
| 20260905203503 | 84 | 150 | 8.7 | 11.3 | 0.00 | 0.00 | 0.00 | 64 | 1013.8 |
| 20260905202959 | 84 | 102 | 7.8 | 9.6 | 0.00 | 0.00 | 0.00 | 62 | 1013.7 |
| 20260905202454 | 84 | 135 | 7.8 | 8.7 | 0.00 | 0.00 | 0.00 | 60 | 1014.1 |
| 20260905201949 | 85 | 136 | 4.3 | 7.0 | 0.00 | 0.00 | 0.00 | 61 | 1014.1 |
| 20260905201444 | 85 | 114 | 2.6 | 6.1 | 0.00 | 0.00 | 0.00 | 62 | 1014.4 |
| 20260905200944 | 85 | 135 | 4.3 | 6.1 | 0.00 | 0.00 | 0.00 | 60 | 1014.5 |
| 20260905200440 | 86 | 130 | 7.8 | 12.2 | 0.00 | 0.00 | 0.00 | 56 | 1014.8 |
| 20260905195938 | 85 | 115 | 0.0 | 2.6 | 0.00 | 0.00 | 0.00 | 66 | 1014.8 |
| 20260905195433 | 85 | 137 | 4.3 | 6.1 | 0.00 | 0.00 | 0.00 | 58 | 1014.8 |
| 20260905194929 | 85 | 127 | 4.3 | 7.0 | 0.00 | 0.00 | 0.00 | 60 | 1014.7 |
| 20260905194428 | 86 | 159 | 4.3 | 9.6 | 0.00 | 0.00 | 0.00 | 59 | 1014.6 |
| 20260905193928 | 86 | 126 | 10.4 | 12.2 | 0.00 | 0.00 | 0.00 | 56 | 1014.9 |
| 20260905193423 | 86 | 147 | 5.2 | 13.9 | 0.00 | 0.00 | 0.00 | 56 | 1014.9 |
| 20260905192919 | 86 | 152 | 7.0 | 11.3 | 0.00 | 0.00 | 0.00 | 57 | 1015.1 |
| 20260905192414 | 87 | 94 | 2.6 | 5.2 | 0.00 | 0.00 | 0.00 | 55 | 1015.6 |
| 20260905191914 | 87 | 143 | 1.7 | 6.1 | 0.00 | 0.00 | 0.00 | 59 | 1015.6 |
| 20260905191413 | 87 | 108 | 1.7 | 7.0 | 0.00 | 0.00 | 0.00 | 57 | 1015.8 |
| 20260905190908 | 87 | 141 | 5.2 | 7.0 | 0.00 | 0.00 | 0.00 | 57 | 1015.7 |
| 20260905190406 | 87 | 121 | 0.9 | 3.5 | 0.00 | 0.00 | 0.00 | 57 | 1016.0 |
| 20260905185904 | 87 | 110 | 0.9 | 1.7 | 0.00 | 0.00 | 0.00 | 56 | 1016.2 |
| 20260905185400 | 87 | 74 | 0.0 | 0.9 | 0.00 | 0.00 | 0.00 | 60 | 1016.3 |
| 20260905184859 | 87 | 74 | 0.0 | 0.0 | 0.00 | 0.00 | 0.00 | 62 | 1016.5 |
| 20260905184359 | 87 | 73 | 0.0 | 0.0 | 0.00 | 0.00 | 0.00 | 59 | 1016.6 |
| 20260905183857 | 87 | 68 | 0.0 | 0.9 | 0.00 | 0.00 | 0.00 | 61 | 1016.7 |
| 20260905183352 | 86 | 53 | 0.9 | 0.9 | 0.00 | 0.00 | 0.00 | 60 | 1016.7 |
| 20260905182847 | 85 | 69 | 0.9 | 0.9 | 0.00 | 0.00 | 0.00 | 62 | 1016.7 |
| 20260905182347 | 84 | 69 | 0.0 | 0.9 | 0.00 | 0.00 | 0.00 | 67 | 1016.9 |
| 20260905181843 | 84 | 69 | 0.0 | 0.0 | 0.00 | 0.00 | 0.00 | 64 | 1016.9 |